Regional Weather Roundup
Issued by NWS

Home | Current Version | Previous Version | Text Only | Print | Product List | Glossary Off
Versions: 1 2 3 4 5 6 7 8 9 10 11 12 13 14 15 16 17 18 19 20 21 22 23 24 25 26 27 28 29 30 31 32 33 34 35 36 37 38 39 40 41 42 43 44 45 46 47 48 49 50

000
ASUS43 KFSD 110702
RWRSD

WEATHER ROUNDUP FOR SOUTH DAKOTA
NATIONAL WEATHER SERVICE SIOUX FALLS SD
200 AM CDT FRI JUL 11 2014

NOTE: "FAIR" INDICATES FEW OR NO CLOUDS BELOW 12,000 FEET WITH NO
SIGNIFICANT WEATHER AND/OR OBSTRUCTIONS TO VISIBILITY.


SDZ001>005-009-010-012>017-110800-
NORTHWEST AND NORTH CENTRAL SOUTH DAKOTA

CITY           SKY/WX    TMP DP  RH WIND       PRES   REMARKS
BUFFALO          N/A     70  65  84 N10       29.84F
FAITH            N/A     69  67  93 S10       29.87F
MOBRIDGE       CLEAR     63  62  97 CALM      29.82R
$$

SDZ012>016-024>037-041>051-057-063-072>074-110800-
SOUTHWEST AND SOUTH CENTRAL SOUTH DAKOTA

CITY           SKY/WX    TMP DP  RH WIND       PRES   REMARKS
RAPID CTY ARPT CLOUDY    69  61  75 SE5       29.92S
PIERRE         PTCLDY    70  68  93 NW7       29.78F
CUSTER         PTCLDY    63  55  75 NW7       30.09S
ELLSWORTH AFB  MOCLDY    72  62  70 W7        29.91F
PHILIP         PTCLDY    69  65  86 W7        29.86F
PINE RIDGE     CLOUDY    65  62  90 E6        29.96R
WINNER         FAIR      73  64  73 VRB7G17   29.87R
$$

SDZ004>011-016>023-039-040-110800-
NORTHEAST SOUTH DAKOTA

CITY           SKY/WX    TMP DP  RH WIND       PRES   REMARKS
ABERDEEN       PTCLDY    69  68  96 S7        29.81F
WATERTOWN      LGT RAIN  74  66  76 S17G25    29.88S
SISSETON         N/A     75  68  78 SW13G21   29.80F
$$

SDZ017-020-022-023-036>040-048>070-110800-
SOUTHEAST SOUTH DAKOTA

CITY           SKY/WX    TMP DP  RH WIND       PRES   REMARKS
SIOUX FALLS    RAIN      73  67  81 S18G30    29.94R
HURON          PTCLDY    73  67  81 S15G23    29.83F
CHAMBERLAIN    CLOUDY    71  69  95 SE12      29.85S
MITCHELL       TSTM      72  71  97 S20G30    29.89F
YANKTON        CLOUDY    72  66  83 SE5       29.96S
$$

ABBREVIATIONS USED IN REMARKS
   TC - TEMPERATURE IN CELSIUS
  WCI - WIND CHILL INDEX
   HX - HEAT INDEX
  VSB - VISIBILITY



USA.gov is the U.S. government's official web portal to all federal, state and local government web resources and services.